,,PA_Meas_PMT16A,,PR_Meas_QMR101_102,,RH_Meas_QMH101,,SR_Meas_QMS101,,TA_Meas_QMH101,,GenWind,,GenWind,
time,status,PA,status,PR,status,RH,status,SR,status,TA,status,DirAvg,status,SpdAvg,
2016-10-19, 14:49:04,VALID,916.89,VALID,0,INVALID,119.451,VALID,150.632,VALID,21.3803,VALID,336,VALID,0,
2016-10-19, 14:50:04,VALID,916.889,VALID,0,INVALID,119.81,VALID,152.889,VALID,21.4599,VALID,346,VALID,0,
2016-10-19, 14:51:04,VALID,916.899,VALID,0,INVALID,119.733,VALID,154.5,VALID,21.4599,VALID,346,VALID,0,
2016-10-19, 14:52:04,VALID,916.943,VALID,0,INVALID,120.008,VALID,155.79,VALID,21.499,VALID,346,VALID,0,
2016-10-19, 14:53:04,VALID,916.968,VALID,0,INVALID,120.267,VALID,158.476,VALID,21.5363,VALID,346,VALID,0,
2016-10-19, 14:54:04,VALID,916.972,VALID,0,INVALID,120.374,VALID,161.484,VALID,21.6144,VALID,346,VALID,0,
2016-10-19, 14:55:04,VALID,916.978,VALID,0,INVALID,120.054,VALID,165.03,VALID,21.5949,VALID,335,VALID,0,
2016-10-19, 14:56:04,VALID,916.979,VALID,0,INVALID,119.566,VALID,168.253,VALID,21.5363,INVALID,360,VALID,0,
2016-10-19, 14:57:04,VALID,916.972,VALID,0,INVALID,119.665,VALID,170.831,VALID,21.4957,VALID,335,VALID,0,
2016-10-19, 14:58:04,VALID,917.013,VALID,0,INVALID,119.627,VALID,172.765,VALID,21.4973,VALID,3,VALID,0,
2016-10-19, 14:59:04,VALID,917.031,VALID,0,INVALID,119.566,VALID,174.377,VALID,21.4778,VALID,3,VALID,0,
2016-10-19, 15:00:04,VALID,917.015,VALID,0,INVALID,119.848,VALID,176.311,VALID,21.5363,VALID,3,VALID,0,
2016-10-19, 15:01:04,VALID,917.044,VALID,0,INVALID,119.733,VALID,178.675,VALID,21.6339,VALID,355,VALID,0,
2016-10-19, 15:02:04,VALID,917.024,VALID,0,INVALID,119.108,VALID,181.361,VALID,21.6534,VALID,333,VALID,0,
2016-10-19, 15:03:04,VALID,917.031,VALID,0,INVALID,118.201,VALID,185.014,VALID,21.6534,VALID,10,VALID,0,
2016-10-19, 15:04:04,VALID,917.059,VALID,0,INVALID,117.584,VALID,187.7,VALID,21.5949,VALID,11,VALID,0,
2016-10-19, 15:05:04,VALID,917.061,VALID,0,INVALID,118.628,VALID,190.923,VALID,21.6339,VALID,330,VALID,0,
2016-10-19, 15:06:04,VALID,917.062,VALID,0,INVALID,119.101,VALID,193.287,VALID,21.712,VALID,9,VALID,0,
2016-10-19, 15:07:04,VALID,917.09,VALID,0,INVALID,118.918,VALID,194.898,VALID,21.751,VALID,34,VALID,0,
2016-10-19, 15:08:04,VALID,917.09,VALID,0,INVALID,118.559,VALID,196.832,VALID,21.79,VALID,333,VALID,0,
2016-10-19, 15:09:04,VALID,917.105,VALID,0,INVALID,118.323,VALID,198.121,VALID,21.7705,VALID,338,VALID,0,
2016-10-19, 15:10:04,VALID,917.102,VALID,0,INVALID,118.765,VALID,200.7,VALID,21.79,VALID,321,VALID,0,
2016-10-19, 15:11:04,VALID,917.112,VALID,0,INVALID,118.979,VALID,208.973,VALID,21.829,VALID,321,VALID,0,
2016-10-19, 15:12:04,VALID,917.112,VALID,0,INVALID,118.742,VALID,214.453,VALID,21.8485,VALID,321,VALID,0,
2016-10-19, 15:13:04,VALID,917.104,VALID,0,INVALID,118.483,VALID,219.073,VALID,21.8664,VALID,321,VALID,0,
2016-10-19, 15:14:04,VALID,917.075,VALID,0,INVALID,118.712,VALID,223.155,VALID,21.9656,VALID,321,VALID,0,
2016-10-19, 15:15:04,VALID,917.06,VALID,0,INVALID,118.346,VALID,230.784,VALID,22.0225,VALID,328,VALID,0,
2016-10-19, 15:16:04,VALID,917.072,VALID,0,INVALID,117.995,VALID,235.726,VALID,22.1005,VALID,337,VALID,0,
2016-10-19, 15:17:04,VALID,917.079,VALID,0,INVALID,118.132,VALID,236.371,VALID,22.1786,VALID,330,VALID,0,
2016-10-19, 15:18:04,VALID,917.114,VALID,0,INVALID,117.713,VALID,237.66,VALID,22.2371,VALID,297,VALID,0,
2016-10-19, 15:19:04,VALID,917.113,VALID,0,INVALID,117.645,VALID,245.718,VALID,22.2779,VALID,297,VALID,0,
2016-10-19, 15:20:04,VALID,917.092,VALID,0,INVALID,115.716,VALID,251.627,VALID,22.2583,VALID,297,VALID,0,
2016-10-19, 15:21:04,VALID,917.07,VALID,0,INVALID,116.28,VALID,256.999,VALID,22.2567,VALID,295,VALID,0,
2016-10-19, 15:22:04,VALID,917.101,VALID,0,INVALID,111.439,VALID,258.396,VALID,22.3169,VALID,295,VALID,0,
2016-10-19, 15:23:04,VALID,917.138,VALID,0,VALID,100.278,VALID,264.842,VALID,22.2779,VALID,299,VALID,0,
2016-10-19, 15:24:04,VALID,917.161,VALID,0,INVALID,111.34,VALID,270.644,VALID,22.2388,VALID,300,VALID,0,
2016-10-19, 15:25:04,VALID,917.135,VALID,0,INVALID,111.698,VALID,274.082,VALID,22.3169,VALID,283,VALID,0,
2016-10-19, 15:26:04,VALID,917.158,VALID,0,INVALID,111.675,VALID,274.297,VALID,22.3347,VALID,283,VALID,0,
2016-10-19, 15:27:04,VALID,917.143,VALID,0,INVALID,110.357,VALID,285.149,VALID,22.4128,VALID,283,VALID,0,
2016-10-19, 15:28:04,VALID,917.204,VALID,0,VALID,104,VALID,287.19,VALID,22.4908,VALID,283,VALID,0,
2016-10-19, 15:29:04,VALID,917.2,VALID,0,VALID,104,VALID,297.827,VALID,22.5689,VALID,325,VALID,0,
2016-10-19, 15:30:04,VALID,917.213,VALID,0,VALID,101.986,VALID,310.29,VALID,22.6274,VALID,314,VALID,0,
2016-10-19, 15:31:04,VALID,917.233,VALID,0,VALID,98.586,VALID,317.489,VALID,22.6079,VALID,284,VALID,0,
2016-10-19, 15:32:04,VALID,917.246,VALID,0,VALID,95.712,VALID,327.373,VALID,22.5884,VALID,284,VALID,0,
2016-10-19, 15:33:04,VALID,917.244,VALID,0,VALID,104,VALID,338.655,VALID,22.5689,VALID,285,VALID,0,
2016-10-19, 15:34:04,VALID,917.26,VALID,0,INVALID,111.95,VALID,345.638,VALID,22.6079,VALID,326,VALID,0,
2016-10-19, 15:35:04,VALID,917.258,VALID,0,VALID,103.717,VALID,353.374,VALID,22.7038,VALID,308,VALID,0,
2016-10-19, 15:36:04,VALID,917.233,VALID,0,VALID,102.001,VALID,359.928,VALID,22.7641,VALID,323,VALID,0,
2016-10-19, 15:37:04,VALID,917.208,VALID,0,VALID,91.3971,VALID,365.407,VALID,22.7428,VALID,308,VALID,0,
2016-10-19, 15:38:04,VALID,917.214,VALID,0,VALID,104,VALID,373.788,VALID,22.6647,VALID,282,VALID,0,
2016-10-19, 15:39:04,VALID,917.194,VALID,0,INVALID,112.133,VALID,381.846,VALID,22.7038,VALID,347,VALID,0,
2016-10-19, 15:40:04,VALID,917.192,VALID,0,VALID,104,VALID,386.143,VALID,22.7233,VALID,14,VALID,1.54805,
2016-10-19, 15:41:04,VALID,917.179,VALID,0,INVALID,109.244,VALID,395.169,VALID,22.8812,VALID,18,VALID,0.995313,
2016-10-19, 15:42:04,VALID,917.212,VALID,0,VALID,104,VALID,403.979,VALID,23.0959,VALID,7,VALID,0.688672,
2016-10-19, 15:43:04,VALID,917.208,VALID,0,VALID,92.7007,VALID,411.929,VALID,23.1935,VALID,276,VALID,0.697656,
2016-10-19, 15:44:04,VALID,917.265,VALID,0,VALID,101.826,VALID,417.516,VALID,23.252,VALID,272,VALID,0.511328,
2016-10-19, 15:45:04,VALID,917.292,VALID,0,VALID,91.2599,VALID,427.079,VALID,23.3088,VALID,280,VALID,0,
2016-10-19, 15:46:04,VALID,917.315,VALID,0,VALID,93.6155,VALID,437.285,VALID,23.4064,VALID,307,VALID,0,
2016-10-19, 15:47:04,VALID,917.308,VALID,0,VALID,86.5258,VALID,446.525,VALID,23.5821,VALID,355,VALID,0.652734,
2016-10-19, 15:48:04,VALID,917.346,VALID,0,VALID,84.6047,VALID,456.517,VALID,23.7382,VALID,28,VALID,0.397656,
2016-10-19, 15:49:04,VALID,917.389,VALID,0,VALID,82.2109,VALID,468.014,VALID,23.8358,VALID,265,VALID,0,
2016-10-19, 15:50:04,VALID,917.398,VALID,0,VALID,83.5908,VALID,419.021,VALID,23.8163,VALID,345,VALID,0,
2016-10-19, 15:51:04,VALID,917.411,VALID,0,VALID,82.3253,VALID,414.186,VALID,23.8749,VALID,317,VALID,0,
2016-10-19, 15:52:04,VALID,917.438,VALID,0,VALID,81.5172,VALID,488.965,VALID,23.8536,VALID,265,VALID,0,
2016-10-19, 15:53:04,VALID,917.437,VALID,0,VALID,84.4827,VALID,389.367,VALID,23.9121,VALID,285,VALID,0,
2016-10-19, 15:54:04,VALID,917.464,VALID,0,VALID,81.6315,VALID,440.294,VALID,24.0292,VALID,8,VALID,0,
2016-10-19, 15:55:04,VALID,917.482,VALID,0,VALID,81.3952,VALID,507.122,VALID,24.2068,VALID,360,VALID,0,
2016-10-19, 15:56:04,VALID,917.524,VALID,0,VALID,81.7306,VALID,507.767,VALID,24.3416,VALID,41,VALID,0,
2016-10-19, 15:57:04,VALID,917.556,VALID,0,VALID,81.0445,VALID,520.338,VALID,24.5387,VALID,3,VALID,0,
2016-10-19, 15:58:04,VALID,917.562,VALID,0,VALID,77.2252,VALID,527.966,VALID,24.4997,VALID,304,VALID,0,
2016-10-19, 15:59:04,VALID,917.548,VALID,0,VALID,78.4754,VALID,543.545,VALID,24.2245,VALID,287,VALID,0,
2016-10-19, 16:00:04,VALID,917.575,VALID,0,VALID,79.8782,VALID,563.099,VALID,24.0506,VALID,267,VALID,0,
2016-10-19, 16:01:04,VALID,917.552,VALID,0,VALID,80.9378,VALID,571.587,VALID,24.0878,VALID,297,VALID,0,
2016-10-19, 16:02:04,VALID,917.545,VALID,0,VALID,80.7396,VALID,575.562,VALID,23.9902,VALID,260,VALID,0,
2016-10-19, 16:03:04,VALID,917.549,VALID,0,VALID,78.5364,VALID,556.33,VALID,23.795,VALID,278,VALID,0.00117188,
2016-10-19, 16:04:04,VALID,917.564,VALID,0,VALID,80.9607,VALID,346.283,VALID,23.5998,VALID,277,VALID,0,
2016-10-19, 16:05:04,VALID,917.582,VALID,0,VALID,82.9428,VALID,301.158,VALID,23.5217,VALID,287,VALID,0,
2016-10-19, 16:06:04,VALID,917.59,VALID,0,VALID,83.7966,VALID,287.19,VALID,23.5412,VALID,289,VALID,0,
2016-10-19, 16:07:04,VALID,917.605,VALID,0,VALID,82.8894,VALID,559.554,VALID,23.6761,VALID,216,VALID,0,
2016-10-19, 16:08:04,VALID,917.608,VALID,0,VALID,82.4244,VALID,588.348,VALID,23.9298,VALID,216,VALID,0,
2016-10-19, 16:09:04,VALID,917.623,VALID,0,VALID,82.6912,VALID,579.538,VALID,24.3221,VALID,340,VALID,0,
2016-10-19, 16:10:04,VALID,917.645,VALID,0,VALID,75.914,VALID,538.173,VALID,24.6149,VALID,318,VALID,0,
2016-10-19, 16:11:04,VALID,917.683,VALID,0,VALID,78.8795,VALID,576.852,VALID,24.6521,VALID,295,VALID,0,
2016-10-19, 16:12:04,VALID,917.643,VALID,0,VALID,75.0754,VALID,574.058,VALID,24.7711,VALID,337,VALID,0,
2016-10-19, 16:13:04,VALID,917.637,VALID,0,VALID,75.4642,VALID,563.099,VALID,24.8669,VALID,332,VALID,0,
2016-10-19, 16:14:04,VALID,917.614,VALID,0,VALID,75.0297,VALID,551.066,VALID,24.9255,VALID,327,VALID,0,
2016-10-19, 16:15:04,VALID,917.641,VALID,0,VALID,74.5036,VALID,560.843,VALID,25.1774,VALID,293,VALID,0,
2016-10-19, 16:16:04,VALID,917.658,VALID,0,VALID,73.5736,VALID,570.19,VALID,25.4136,VALID,21,VALID,0,
2016-10-19, 16:17:04,VALID,917.646,VALID,0,VALID,72.7274,VALID,572.339,VALID,25.5679,VALID,19,VALID,0,
2016-10-19, 16:18:04,VALID,917.657,VALID,0,VALID,72.1404,VALID,562.884,VALID,25.6265,VALID,1,VALID,0,
2016-10-19, 16:19:04,VALID,917.671,VALID,0,VALID,71.8278,VALID,569.868,VALID,25.7847,VALID,312,VALID,0,
2016-10-19, 16:20:04,VALID,917.673,VALID,0,VALID,72.8036,VALID,573.306,VALID,25.7066,VALID,295,VALID,0,
2016-10-19, 16:21:04,VALID,917.682,VALID,0,VALID,71.1722,VALID,574.703,VALID,25.4722,VALID,276,VALID,0,
2016-10-19, 16:22:04,VALID,917.723,VALID,0,VALID,73.505,VALID,576.959,VALID,25.1793,VALID,273,VALID,0,
2016-10-19, 16:23:04,VALID,917.713,VALID,0,VALID,74.2978,VALID,556.008,VALID,24.904,VALID,283,VALID,0,
2016-10-19, 16:24:04,VALID,917.691,VALID,0,VALID,75.4337,VALID,536.669,VALID,24.7479,VALID,287,VALID,0,
2016-10-19, 16:25:04,VALID,917.715,VALID,0,VALID,75.8225,VALID,536.561,VALID,24.8278,VALID,298,VALID,0,
2016-10-19, 16:26:04,VALID,917.763,VALID,0,VALID,75.7844,VALID,528.396,VALID,24.9626,VALID,256,VALID,0,
2016-10-19, 16:27:04,VALID,917.726,VALID,0,VALID,77.2862,VALID,538.602,VALID,24.9821,VALID,248,VALID,0,
2016-10-19, 16:28:04,VALID,917.703,VALID,0,VALID,76.3638,VALID,458.774,VALID,25.1383,VALID,35,VALID,0,
2016-10-19, 16:29:04,VALID,917.709,VALID,0,VALID,76.2799,VALID,588.778,VALID,25.4117,VALID,332,VALID,0,
2016-10-19, 16:30:04,VALID,917.687,VALID,0,VALID,76.1046,VALID,589.315,VALID,25.7437,VALID,343,VALID,0,
2016-10-19, 16:31:04,VALID,917.692,VALID,0,VALID,74.1835,VALID,422.673,VALID,25.9389,VALID,326,VALID,0,
2016-10-19, 16:32:04,VALID,917.705,VALID,0,VALID,71.3018,VALID,454.261,VALID,26.0366,VALID,321,VALID,0,
2016-10-19, 16:33:04,VALID,917.701,VALID,0,VALID,70.3108,VALID,575.885,VALID,25.978,VALID,287,VALID,0,
2016-10-19, 16:34:04,VALID,917.693,VALID,0,VALID,70.8749,VALID,323.29,VALID,25.4117,VALID,245,VALID,0.902734,
2016-10-19, 16:35:04,VALID,917.686,VALID,0,VALID,74.9687,VALID,402.045,VALID,25.1188,VALID,332,VALID,0.19375,
2016-10-19, 16:36:04,VALID,917.666,VALID,0,VALID,75.5176,VALID,354.233,VALID,25.1579,VALID,18,VALID,0,
2016-10-19, 16:37:04,VALID,917.694,VALID,0,VALID,73.4287,VALID,276.124,VALID,25.2555,VALID,309,VALID,0,
2016-10-19, 16:38:04,VALID,917.657,VALID,0,VALID,73.5583,VALID,282.678,VALID,25.2536,VALID,315,VALID,0.50625,
2016-10-19, 16:39:04,VALID,917.68,VALID,0,VALID,74.3588,VALID,375.185,VALID,25.236,VALID,17,VALID,0,
2016-10-19, 16:40:04,VALID,917.661,VALID,0,VALID,74.0081,VALID,290.843,VALID,25.1969,VALID,318,VALID,0,
2016-10-19, 16:41:04,VALID,917.64,VALID,0,VALID,75.5557,VALID,441.153,VALID,25.236,VALID,332,VALID,0,
2016-10-19, 16:42:04,VALID,917.659,VALID,0,VALID,74.8238,VALID,589.53,VALID,25.3726,VALID,334,VALID,0,
2016-10-19, 16:43:04,VALID,917.591,VALID,0,VALID,74.031,VALID,325.762,VALID,25.3922,VALID,2,VALID,0,
2016-10-19, 16:44:04,VALID,917.64,VALID,0,VALID,74.74,VALID,611.662,VALID,25.4117,VALID,7,VALID,0,
2016-10-19, 16:45:04,VALID,917.656,VALID,0,VALID,75.7539,VALID,298.149,VALID,25.646,VALID,21,VALID,0,
2016-10-19, 16:46:04,VALID,917.645,VALID,0,VALID,72.3615,VALID,288.372,VALID,25.8022,VALID,310,VALID,0,
2016-10-19, 16:47:04,VALID,917.662,VALID,0,VALID,72.4834,VALID,281.281,VALID,25.7827,VALID,317,VALID,0,
2016-10-19, 16:48:04,VALID,917.639,VALID,0,VALID,70.204,VALID,397.425,VALID,25.9194,VALID,356,VALID,0,
2016-10-19, 16:49:04,VALID,917.618,VALID,0,VALID,71.9955,VALID,508.197,VALID,25.8589,VALID,356,VALID,0,
2016-10-19, 16:50:04,VALID,917.657,VALID,0,VALID,70.8978,VALID,579.323,VALID,25.7632,VALID,309,VALID,0,
2016-10-19, 16:51:04,VALID,917.595,VALID,0,VALID,70.852,VALID,340.696,VALID,25.8003,VALID,1,VALID,0,
2016-10-19, 16:52:04,VALID,917.605,VALID,0,VALID,70.7682,VALID,317.596,VALID,25.8784,VALID,339,VALID,0,
2016-10-19, 16:53:04,VALID,917.598,VALID,0,VALID,70.3794,VALID,510.345,VALID,25.9194,INVALID,360,VALID,0,
2016-10-19, 16:54:04,VALID,917.571,VALID,0,VALID,70.509,VALID,570.298,VALID,25.937,VALID,288,VALID,0.962891,
2016-10-19, 16:55:04,VALID,917.625,VALID,0,VALID,69.1139,VALID,303.736,VALID,25.7808,VALID,300,VALID,0,
2016-10-19, 16:56:04,VALID,917.63,VALID,0,VALID,70.3413,VALID,370.35,VALID,25.607,VALID,275,VALID,0,
2016-10-19, 16:57:04,VALID,917.653,VALID,0,VALID,72.9942,VALID,492.833,VALID,25.3902,VALID,11,VALID,0,
2016-10-19, 16:58:04,VALID,917.639,VALID,0,VALID,73.627,VALID,312.331,VALID,25.3726,VALID,56,VALID,0,
2016-10-19, 16:59:04,VALID,917.603,VALID,0,VALID,74.9611,VALID,314.48,VALID,25.3726,VALID,352,VALID,0,
2016-10-19, 17:00:04,VALID,917.603,VALID,0,VALID,75.4489,VALID,267.528,VALID,25.3317,VALID,29,VALID,0.101563,
2016-10-19, 17:01:04,VALID,917.604,VALID,0,VALID,73.8861,VALID,271.396,VALID,25.2945,VALID,339,VALID,0,
2016-10-19, 17:02:04,VALID,917.59,VALID,0,VALID,75.4489,VALID,570.942,VALID,25.2731,VALID,326,VALID,0,
2016-10-19, 17:03:04,VALID,917.625,VALID,0,VALID,76.3638,VALID,624.448,VALID,25.4293,VALID,32,VALID,0,
2016-10-19, 17:04:04,VALID,917.625,VALID,0,VALID,76.3638,VALID,324.257,VALID,25.7241,VALID,15,VALID,0,
2016-10-19, 17:05:04,VALID,917.648,VALID,0,VALID,71.8507,VALID,294.281,VALID,25.7808,VALID,255,VALID,0,
2016-10-19, 17:06:04,VALID,917.611,VALID,0,VALID,74.1682,VALID,324.15,VALID,25.607,VALID,263,VALID,0,
2016-10-19, 17:07:04,VALID,917.658,VALID,0,VALID,72.4301,VALID,535.379,VALID,25.3902,VALID,338,VALID,0,
2016-10-19, 17:08:04,VALID,917.633,VALID,0,VALID,73.7261,VALID,444.484,VALID,25.2731,VALID,322,VALID,0,
2016-10-19, 17:09:04,VALID,917.648,VALID,0,VALID,76.5315,VALID,287.19,VALID,25.236,VALID,17,VALID,0,
2016-10-19, 17:10:04,VALID,917.604,VALID,0,VALID,75.7463,VALID,459.418,VALID,25.2926,VALID,346,VALID,0,
2016-10-19, 17:11:04,VALID,917.604,VALID,0,VALID,76.8517,VALID,260.867,VALID,25.3336,VALID,11,VALID,0.0113281,
2016-10-19, 17:12:04,VALID,917.609,VALID,0,VALID,74.2597,VALID,462.319,VALID,25.2731,VALID,3,VALID,0.00976563,
2016-10-19, 17:13:04,VALID,917.611,VALID,0,VALID,76.501,VALID,340.481,VALID,25.1364,VALID,30,VALID,0.0375,
2016-10-19, 17:14:04,VALID,917.593,VALID,0,VALID,77.1109,VALID,500.783,VALID,25.1383,VALID,29,VALID,0,
2016-10-19, 17:15:04,VALID,917.555,VALID,0,VALID,77.1185,VALID,308.464,VALID,25.1755,VALID,41,VALID,0,
2016-10-19, 17:16:04,VALID,917.585,VALID,0,VALID,75.67,VALID,417.624,VALID,25.234,VALID,17,VALID,1.7793,
2016-10-19, 17:17:04,VALID,917.578,VALID,0,VALID,76.0207,VALID,646.151,VALID,25.2164,VALID,36,VALID,0.329297,
2016-10-19, 17:18:04,VALID,917.601,VALID,0,VALID,76.4019,VALID,705.996,VALID,25.3902,VALID,14,VALID,0,
2016-10-19, 17:19:04,VALID,917.557,VALID,0,VALID,73.0552,VALID,288.265,VALID,25.566,VALID,7,VALID,0,
2016-10-19, 17:20:04,VALID,917.579,VALID,0,VALID,74.9534,VALID,430.732,VALID,25.6831,VALID,28,VALID,0,
2016-10-19, 17:21:04,VALID,917.609,VALID,0,VALID,72.7274,VALID,749.402,VALID,25.8589,VALID,306,VALID,0,
2016-10-19, 17:22:04,VALID,917.572,VALID,0,VALID,70.2345,VALID,584.695,VALID,25.8198,VALID,360,VALID,0.398047,
2016-10-19, 17:23:04,VALID,917.556,VALID,0,VALID,71.6296,VALID,397.532,VALID,25.6265,VALID,4,VALID,1.98516,
2016-10-19, 17:24:04,VALID,917.527,VALID,0,VALID,74.2673,VALID,595.869,VALID,25.4312,VALID,340,VALID,1.11445,
2016-10-19, 17:25:04,VALID,917.56,VALID,0,VALID,75.6167,VALID,527.536,VALID,25.4098,VALID,8,VALID,0.244922,
2016-10-19, 17:26:04,VALID,917.556,VALID,0,VALID,76.2342,VALID,422.029,VALID,25.4507,VALID,15,VALID,0.589453,
2016-10-19, 17:27:04,VALID,917.56,VALID,0,VALID,76.5467,VALID,847.281,VALID,25.6851,VALID,9,VALID,0.0242187,
2016-10-19, 17:28:04,VALID,917.492,VALID,0,VALID,72.27,VALID,886.175,VALID,25.9194,VALID,37,VALID,0,
2016-10-19, 17:29:04,VALID,917.507,VALID,0,VALID,70.57,VALID,348.647,VALID,26.1323,VALID,343,VALID,0.711328,
2016-10-19, 17:30:04,VALID,917.487,VALID,0,VALID,71.1875,VALID,362.721,VALID,26.1713,VALID,14,VALID,1.28164,
2016-10-19, 17:31:04,VALID,917.486,VALID,0,VALID,71.3018,VALID,456.947,VALID,26.1713,VALID,29,VALID,1.68672,
2016-10-19, 17:32:04,VALID,917.487,VALID,0,VALID,73.4974,VALID,259.47,VALID,26.3471,VALID,14,VALID,0.379687,
2016-10-19, 17:33:04,VALID,917.541,VALID,0,VALID,72.0184,VALID,283.215,VALID,26.308,VALID,8,VALID,1.0168,
2016-10-19, 17:34:04,VALID,917.509,VALID,0,VALID,71.0807,VALID,769.923,VALID,26.1908,VALID,23,VALID,2.63984,
2016-10-19, 17:35:04,VALID,917.514,VALID,0,VALID,71.2408,VALID,472.096,VALID,25.937,VALID,3,VALID,1.05352,
2016-10-19, 17:36:04,VALID,917.523,VALID,0,VALID,71.9422,VALID,412.896,VALID,25.9174,VALID,333,VALID,0.06875,
2016-10-19, 17:37:04,VALID,917.562,VALID,0,VALID,70.9893,VALID,656.465,VALID,25.937,VALID,257,VALID,1.42617,
2016-10-19, 17:38:04,VALID,917.51,VALID,0,VALID,71.4695,VALID,350.795,VALID,25.7612,VALID,268,VALID,0.0515625,
2016-10-19, 17:39:04,VALID,917.482,VALID,0,VALID,70.9283,VALID,271.289,VALID,25.7417,VALID,348,VALID,0.114453,
2016-10-19, 17:40:04,VALID,917.455,VALID,0,VALID,72.4606,VALID,545.801,VALID,25.7417,VALID,17,VALID,0.533984,
2016-10-19, 17:41:04,VALID,917.379,VALID,0,VALID,72.6816,VALID,546.016,VALID,25.7417,VALID,355,VALID,2.34961,
2016-10-19, 17:42:04,VALID,917.37,VALID,0,VALID,73.0171,VALID,314.588,VALID,25.7026,VALID,11,VALID,1.5,
2016-10-19, 17:43:04,VALID,917.397,VALID,0,VALID,73.1543,VALID,318.026,VALID,25.8198,VALID,316,VALID,0.15625,
2016-10-19, 17:44:04,VALID,917.364,VALID,0,VALID,69.6933,VALID,434.922,VALID,25.8569,VALID,282,VALID,0.0121094,
2016-10-19, 17:45:04,VALID,917.35,VALID,0,VALID,69.8686,VALID,379.052,VALID,25.937,VALID,228,VALID,1.02188,
2016-10-19, 17:46:04,VALID,917.362,VALID,0,VALID,70.0668,VALID,365.622,VALID,26.0737,VALID,70,VALID,0.0078125,
2016-10-19, 17:47:04,VALID,917.347,VALID,0,VALID,69.2206,VALID,774.866,VALID,26.308,VALID,79,VALID,0,
2016-10-19, 17:48:04,VALID,917.338,VALID,0,VALID,68.9919,VALID,896.489,VALID,26.4447,VALID,360,VALID,0.0148437,
2016-10-19, 17:49:04,VALID,917.358,VALID,0,VALID,69.8534,VALID,872.1,VALID,26.5619,VALID,258,VALID,0.651953,
2016-10-19, 17:50:04,VALID,917.352,VALID,0,VALID,69.678,VALID,913.465,VALID,26.5404,VALID,224,VALID,0.724609,
2016-10-19, 17:51:04,VALID,917.352,VALID,0,VALID,68.3897,VALID,365.407,VALID,26.7182,VALID,227,VALID,0,
2016-10-19, 17:52:04,VALID,917.333,VALID,0,VALID,70.3413,VALID,348.539,VALID,26.8333,VALID,238,VALID,0,
2016-10-19, 17:53:04,VALID,917.35,VALID,0,VALID,68.2601,VALID,1086.87,VALID,26.9331,VALID,71,VALID,0.878125,
2016-10-19, 17:54:04,VALID,917.34,VALID,0,VALID,66.6744,VALID,1035.63,VALID,27.0482,VALID,34,VALID,0.249609,
2016-10-19, 17:55:04,VALID,917.372,VALID,0,VALID,63.5945,VALID,1077.96,VALID,27.0091,VALID,263,VALID,1.83789,
2016-10-19, 17:56:04,VALID,917.34,VALID,0,VALID,64.6542,VALID,970.086,VALID,26.6401,VALID,337,VALID,0.544922,
2016-10-19, 17:57:04,VALID,917.317,VALID,0,VALID,66.1255,VALID,653.35,VALID,26.4838,VALID,338,VALID,0,
2016-10-19, 17:58:04,VALID,917.303,VALID,0,VALID,66.9412,VALID,1118.14,VALID,26.601,VALID,338,VALID,0,
2016-10-19, 17:59:04,VALID,917.282,VALID,0,VALID,68.8471,VALID,1103.74,VALID,26.8159,VALID,259,VALID,0.0910156,
2016-10-19, 18:00:04,VALID,917.333,VALID,0,VALID,67.7569,VALID,636.589,VALID,27.0112,VALID,256,VALID,0.142969,
2016-10-19, 18:01:04,VALID,917.323,VALID,0,VALID,67.6426,VALID,1076.78,VALID,26.9505,VALID,223,VALID,0,
2016-10-19, 18:02:04,VALID,917.325,VALID,0,VALID,66.9031,VALID,450.608,VALID,27.1089,VALID,238,VALID,2.26914,
2016-10-19, 18:03:04,VALID,917.285,VALID,0,VALID,68.5574,VALID,931.515,VALID,26.8724,VALID,201,VALID,0.531641,
2016-10-19, 18:04:04,VALID,917.273,VALID,0,VALID,67.7874,VALID,1158.54,VALID,26.7943,VALID,305,VALID,0.0738281,
2016-10-19, 18:05:04,VALID,917.23,VALID,0,VALID,67.978,VALID,1016.18,VALID,26.7377,VALID,234,VALID,2.11406,
2016-10-19, 18:06:04,VALID,917.207,VALID,0,VALID,69.5789,VALID,329.092,VALID,26.2885,VALID,252,VALID,0.653125,
2016-10-19, 18:07:04,VALID,917.22,VALID,0,VALID,70.4251,VALID,449.856,VALID,26.0561,VALID,241,VALID,2.35195,
2016-10-19, 18:08:04,VALID,917.234,VALID,0,VALID,72.6359,VALID,373.68,VALID,25.6831,VALID,261,VALID,2.225,
2016-10-19, 18:09:04,VALID,917.211,VALID,0,VALID,73.0018,VALID,955.044,VALID,25.3902,VALID,228,VALID,0.703125,
2016-10-19, 18:10:04,VALID,917.153,VALID,0,VALID,73.7413,VALID,946.127,VALID,25.4879,VALID,237,VALID,0.113672,
2016-10-19, 18:11:04,VALID,917.176,VALID,0,VALID,74.7781,VALID,783.783,VALID,25.8393,VALID,8,VALID,0.383203,
2016-10-19, 18:12:04,VALID,917.164,VALID,0,VALID,71.7058,VALID,506.048,VALID,26.1518,VALID,341,VALID,0.533984,
2016-10-19, 18:13:04,VALID,917.197,VALID,0,VALID,72.4987,VALID,542.9,VALID,26.2494,VALID,306,VALID,0,
2016-10-19, 18:14:04,VALID,917.19,VALID,0,VALID,71.4619,VALID,809.032,VALID,26.4447,VALID,276,VALID,0.129297,
2016-10-19, 18:15:04,VALID,917.154,VALID,0,VALID,71.2789,VALID,925.713,VALID,26.5424,VALID,346,VALID,0.0859375,
2016-10-19, 18:16:04,VALID,917.148,VALID,0,VALID,74.4732,VALID,364.118,VALID,26.7573,VALID,46,VALID,1.51328,
2016-10-19, 18:17:04,VALID,917.133,VALID,0,VALID,71.5,VALID,276.016,VALID,27.0914,VALID,352,VALID,0.588281,
2016-10-19, 18:18:04,VALID,917.154,VALID,0,VALID,69.1063,VALID,281.711,VALID,27.1089,VALID,25,VALID,0.680859,
2016-10-19, 18:19:04,VALID,917.148,VALID,0,VALID,70.9816,VALID,1015.86,VALID,26.8529,VALID,316,VALID,0.0652344,
2016-10-19, 18:20:04,VALID,917.176,VALID,0,VALID,71.4924,VALID,811.181,VALID,26.8138,VALID,252,VALID,0,
2016-10-19, 18:21:04,VALID,917.151,VALID,0,VALID,70.9359,VALID,308.249,VALID,26.9115,VALID,267,VALID,0.433594,
2016-10-19, 18:22:04,VALID,917.135,VALID,0,VALID,71.4009,VALID,1012.42,VALID,27.1068,VALID,360,VALID,0.0148437,
2016-10-19, 18:23:04,VALID,917.137,VALID,0,VALID,68.0924,VALID,1020.26,VALID,27.3412,VALID,359,VALID,0.322266,
2016-10-19, 18:24:04,VALID,917.108,VALID,0,VALID,66.56,VALID,391.838,VALID,27.1068,VALID,264,VALID,1.61211,
2016-10-19, 18:25:04,VALID,917.126,VALID,0,VALID,67.2538,VALID,438.252,VALID,26.8919,VALID,303,VALID,0.800391,
2016-10-19, 18:26:04,VALID,917.093,VALID,0,VALID,71.4467,VALID,295.463,VALID,26.5013,VALID,38,VALID,1.32617,
2016-10-19, 18:27:04,VALID,917.067,VALID,0,VALID,72.1099,VALID,1043.25,VALID,26.5209,VALID,10,VALID,0.133984,
2016-10-19, 18:28:04,VALID,917.064,VALID,0,VALID,72.4606,VALID,1043.47,VALID,26.7357,VALID,313,VALID,0.0296875,
2016-10-19, 18:29:04,VALID,917.043,VALID,0,VALID,67.0174,VALID,1053.14,VALID,26.7943,VALID,338,VALID,0.0785156,
2016-10-19, 18:30:04,VALID,917.014,VALID,0,VALID,66.9641,VALID,1094.83,VALID,26.8919,VALID,337,VALID,0,
2016-10-19, 18:31:04,VALID,917.003,VALID,0,VALID,67.5892,VALID,854.694,VALID,27.1068,VALID,285,VALID,0,